{"data":{"norad_id":65071,"epoch":"2026-05-25T03:44:31.076736Z","epoch_age_seconds":64684,"freshness":"FRESH","line1":"1 65071U 25165R   26145.15591524 -.00000236  00000+0 -12268-4 0  9993","line2":"2 65071  97.4471 222.1911 0002335 149.0888 211.0477 15.05665909 46291","mean_motion":15.05665909,"eccentricity":0.0002335,"inclination_deg":97.4471,"raan_deg":222.1911,"arg_perigee_deg":149.0888,"mean_anomaly_deg":211.0477,"bstar":-1.2268e-5,"rev_number":4629,"period_min":95.638746377434,"perigee_km":547.8447607391,"apogee_km":551.07994963797,"semimajor_km":6927.5993551885,"source":"CELESTRAK","updated_at":"2026-05-25T13:38:20.679729Z"}}